Year,Month,Day,Hour,Minute,Value (Times are PST for temperature in C)
2015,08,06,00,00,15.20
2015,08,06,00,01,15.20
2015,08,06,00,02,15.20
2015,08,06,00,03,15.20
2015,08,06,00,04,15.20
2015,08,06,00,05,15.20
2015,08,06,00,06,15.20
2015,08,06,00,07,15.20
2015,08,06,00,08,15.20
2015,08,06,00,09,15.20
2015,08,06,00,10,15.20
2015,08,06,00,11,15.20
2015,08,06,00,12,15.20
2015,08,06,00,13,15.20
2015,08,06,00,14,15.20
2015,08,06,00,15,15.20
2015,08,06,00,16,15.20
2015,08,06,00,17,15.20
2015,08,06,00,18,15.10
2015,08,06,00,19,15.10
2015,08,06,00,20,15.10
2015,08,06,00,21,15.10
2015,08,06,00,22,15.10
2015,08,06,00,23,15.10
2015,08,06,00,24,15.10
2015,08,06,00,25,15.10
2015,08,06,00,26,15.10
2015,08,06,00,27,15.10
2015,08,06,00,28,15.10
2015,08,06,00,29,15.10
2015,08,06,00,30,15.10
2015,08,06,00,31,15.10
2015,08,06,00,32,15.10
2015,08,06,00,33,15.10
2015,08,06,00,34,15.10
2015,08,06,00,35,15.10
2015,08,06,00,36,15.10
2015,08,06,00,37,15.10
2015,08,06,00,38,15.10
2015,08,06,00,39,15.10
2015,08,06,00,40,15.10
2015,08,06,00,41,15.10
2015,08,06,00,42,15.10
2015,08,06,00,43,15.10
2015,08,06,00,44,15.10
2015,08,06,00,45,15.10
2015,08,06,00,46,15.10
2015,08,06,00,47,15.10
2015,08,06,00,48,15.10
2015,08,06,00,49,15.10
2015,08,06,00,50,15.10
2015,08,06,00,51,15.10
2015,08,06,00,52,15.10
2015,08,06,00,53,15.10
2015,08,06,00,54,15.10
2015,08,06,00,55,15.10
2015,08,06,00,56,15.10
2015,08,06,00,57,15.10
2015,08,06,00,58,15.00
2015,08,06,00,59,15.00
2015,08,06,01,00,15.00
2015,08,06,01,01,15.00
2015,08,06,01,02,15.00
2015,08,06,01,03,15.00
2015,08,06,01,04,14.90
2015,08,06,01,05,14.90
2015,08,06,01,06,14.90
2015,08,06,01,07,14.90
2015,08,06,01,08,14.90
2015,08,06,01,09,14.90
2015,08,06,01,10,14.90
2015,08,06,01,11,14.90
2015,08,06,01,12,14.90
2015,08,06,01,13,14.90
2015,08,06,01,14,14.90
2015,08,06,01,15,14.90
2015,08,06,01,16,14.90
2015,08,06,01,17,14.90
2015,08,06,01,18,14.90
2015,08,06,01,19,14.90
2015,08,06,01,20,14.90
2015,08,06,01,21,14.90
2015,08,06,01,22,15.00
2015,08,06,01,23,15.00
2015,08,06,01,24,15.00
2015,08,06,01,25,15.00
2015,08,06,01,26,15.10
2015,08,06,01,27,15.10
2015,08,06,01,28,15.10
2015,08,06,01,29,15.10
2015,08,06,01,30,15.10
2015,08,06,01,31,15.10
2015,08,06,01,32,15.10
2015,08,06,01,33,15.10
2015,08,06,01,34,15.20
2015,08,06,01,35,15.20
2015,08,06,01,36,15.20
2015,08,06,01,37,15.20
2015,08,06,01,38,15.20
2015,08,06,01,39,15.20
2015,08,06,01,40,15.20
2015,08,06,01,41,15.20
2015,08,06,01,42,15.20
2015,08,06,01,43,15.20
2015,08,06,01,44,15.20
2015,08,06,01,45,15.20
2015,08,06,01,46,15.20
2015,08,06,01,47,15.20
2015,08,06,01,48,15.20
2015,08,06,01,49,15.20
2015,08,06,01,50,15.20
2015,08,06,01,51,15.20
2015,08,06,01,52,15.20
2015,08,06,01,53,15.20
2015,08,06,01,54,15.20
2015,08,06,01,55,15.20
2015,08,06,01,56,15.20
2015,08,06,01,57,15.20
2015,08,06,01,58,15.20
2015,08,06,01,59,15.20
2015,08,06,02,00,15.20
2015,08,06,02,01,15.20
2015,08,06,02,02,15.20
2015,08,06,02,03,15.20
2015,08,06,02,04,15.20
2015,08,06,02,05,15.20
2015,08,06,02,06,15.20
2015,08,06,02,07,15.20
2015,08,06,02,08,15.20
2015,08,06,02,09,15.20
2015,08,06,02,10,15.20
2015,08,06,02,11,15.20
2015,08,06,02,12,15.20
2015,08,06,02,13,15.20
2015,08,06,02,14,15.20
2015,08,06,02,15,15.20
2015,08,06,02,16,15.20
2015,08,06,02,17,15.20
2015,08,06,02,18,15.30
2015,08,06,02,19,15.30
2015,08,06,02,20,15.30
2015,08,06,02,21,15.30
2015,08,06,02,22,15.30
2015,08,06,02,23,15.30
2015,08,06,02,24,15.30
2015,08,06,02,25,15.30
2015,08,06,02,26,15.30
2015,08,06,02,27,15.30
2015,08,06,02,28,15.30
2015,08,06,02,29,15.30
2015,08,06,02,30,15.30
2015,08,06,02,31,15.30
2015,08,06,02,32,15.30
2015,08,06,02,33,15.30
2015,08,06,02,34,15.30
2015,08,06,02,35,15.30
2015,08,06,02,36,15.30
2015,08,06,02,37,15.30
2015,08,06,02,38,15.30
2015,08,06,02,39,15.30
2015,08,06,02,40,15.30
2015,08,06,02,41,15.30
2015,08,06,02,42,15.30
2015,08,06,02,43,15.30
2015,08,06,02,44,15.30
2015,08,06,02,45,15.30
2015,08,06,02,46,15.30
2015,08,06,02,47,15.30
2015,08,06,02,48,15.30
2015,08,06,02,49,15.30
2015,08,06,02,50,15.30
2015,08,06,02,51,15.30
2015,08,06,02,52,15.30
2015,08,06,02,53,15.30
2015,08,06,02,54,15.30
2015,08,06,02,55,15.30
2015,08,06,02,56,15.30
2015,08,06,02,57,15.30
2015,08,06,02,58,15.30
2015,08,06,02,59,15.30
2015,08,06,03,00,15.30
2015,08,06,03,01,15.30
2015,08,06,03,02,15.30
2015,08,06,03,03,15.30
2015,08,06,03,04,15.30
2015,08,06,03,05,15.30
2015,08,06,03,06,15.20
2015,08,06,03,07,15.20
2015,08,06,03,08,15.20
2015,08,06,03,09,15.20
2015,08,06,03,10,15.20
2015,08,06,03,11,15.20
2015,08,06,03,12,15.20
2015,08,06,03,13,15.20
2015,08,06,03,14,15.20
2015,08,06,03,15,15.20
2015,08,06,03,16,15.20
2015,08,06,03,17,15.20
2015,08,06,03,18,15.20
2015,08,06,03,19,15.20
2015,08,06,03,20,15.20
2015,08,06,03,21,15.20
2015,08,06,03,22,15.20
2015,08,06,03,23,15.20
2015,08,06,03,24,15.10
2015,08,06,03,25,15.10
2015,08,06,03,26,15.10
2015,08,06,03,27,15.10
2015,08,06,03,28,15.10
2015,08,06,03,29,15.10
2015,08,06,03,30,15.00
2015,08,06,03,31,15.00
2015,08,06,03,32,15.00
2015,08,06,03,33,15.00
2015,08,06,03,34,15.00
2015,08,06,03,35,14.90
2015,08,06,03,36,14.90
2015,08,06,03,37,14.90
2015,08,06,03,38,14.90
2015,08,06,03,39,14.90
2015,08,06,03,40,14.90
2015,08,06,03,41,14.90
2015,08,06,03,42,14.90
2015,08,06,03,43,14.90
2015,08,06,03,44,14.90
2015,08,06,03,45,14.80
2015,08,06,03,46,14.80
2015,08,06,03,47,14.80
2015,08,06,03,48,14.80
2015,08,06,03,49,14.80
2015,08,06,03,50,14.80
2015,08,06,03,51,14.80
2015,08,06,03,52,14.70
2015,08,06,03,53,14.70
2015,08,06,03,54,14.70
2015,08,06,03,55,14.70
2015,08,06,03,56,14.70
2015,08,06,03,57,14.70
2015,08,06,03,58,14.70
2015,08,06,03,59,14.70
2015,08,06,04,00,14.70
2015,08,06,04,01,14.70
2015,08,06,04,02,14.60
2015,08,06,04,03,14.60
2015,08,06,04,04,14.60
2015,08,06,04,05,14.60
2015,08,06,04,06,14.60
2015,08,06,04,07,14.50
2015,08,06,04,08,14.50
2015,08,06,04,09,14.50
2015,08,06,04,10,14.50
2015,08,06,04,11,14.50
2015,08,06,04,12,14.40
2015,08,06,04,13,14.40
2015,08,06,04,14,14.40
2015,08,06,04,15,14.40
2015,08,06,04,16,14.40
2015,08,06,04,17,14.40
2015,08,06,04,18,14.40
2015,08,06,04,19,14.30
2015,08,06,04,20,14.30
2015,08,06,04,21,14.30
2015,08,06,04,22,14.20
2015,08,06,04,23,14.20
2015,08,06,04,24,14.20
2015,08,06,04,25,14.20
2015,08,06,04,26,14.20
2015,08,06,04,27,14.20
2015,08,06,04,28,14.20
2015,08,06,04,29,14.20
2015,08,06,04,30,14.20
2015,08,06,04,31,14.20
2015,08,06,04,32,14.20
2015,08,06,04,33,14.20
2015,08,06,04,34,14.10
2015,08,06,04,35,14.10
2015,08,06,04,36,14.10
2015,08,06,04,37,14.00
2015,08,06,04,38,14.00
2015,08,06,04,39,13.90
2015,08,06,04,40,13.90
2015,08,06,04,41,13.80
2015,08,06,04,42,13.80
2015,08,06,04,43,13.70
2015,08,06,04,44,13.70
2015,08,06,04,45,13.70
2015,08,06,04,46,13.60
2015,08,06,04,47,13.60
2015,08,06,04,48,13.50
2015,08,06,04,49,13.50
2015,08,06,04,50,13.50
2015,08,06,04,51,13.40
2015,08,06,04,52,13.50
2015,08,06,04,53,13.50
2015,08,06,04,54,13.50
2015,08,06,04,55,13.50
2015,08,06,04,56,13.40
2015,08,06,04,57,13.40
2015,08,06,04,58,13.40
2015,08,06,04,59,13.40
2015,08,06,05,00,13.40
2015,08,06,05,01,13.40
2015,08,06,05,02,13.40
2015,08,06,05,03,13.30
2015,08,06,05,04,13.30
2015,08,06,05,05,13.30
2015,08,06,05,06,13.20
2015,08,06,05,07,13.20
2015,08,06,05,08,13.20
2015,08,06,05,09,13.10
2015,08,06,05,10,13.10
2015,08,06,05,11,13.10
2015,08,06,05,12,13.10
2015,08,06,05,13,13.00
2015,08,06,05,14,13.00
2015,08,06,05,15,13.00
2015,08,06,05,16,12.90
2015,08,06,05,17,12.90
2015,08,06,05,18,12.90
2015,08,06,05,19,12.80
2015,08,06,05,20,12.80
2015,08,06,05,21,12.80
2015,08,06,05,22,12.70
2015,08,06,05,23,12.70
2015,08,06,05,24,12.70
2015,08,06,05,25,12.70
2015,08,06,05,26,12.70
2015,08,06,05,27,12.70
2015,08,06,05,28,12.70
2015,08,06,05,29,12.60
2015,08,06,05,30,12.60
2015,08,06,05,31,12.60
2015,08,06,05,32,12.60
2015,08,06,05,33,12.60
2015,08,06,05,34,12.60
2015,08,06,05,35,12.60
2015,08,06,05,36,12.50
2015,08,06,05,37,12.50
2015,08,06,05,38,12.50
2015,08,06,05,39,12.40
2015,08,06,05,40,12.40
2015,08,06,05,41,12.40
2015,08,06,05,42,12.40
2015,08,06,05,43,12.30
2015,08,06,05,44,12.30
2015,08,06,05,45,12.30
2015,08,06,05,46,12.30
2015,08,06,05,47,12.30
2015,08,06,05,48,12.30
2015,08,06,05,49,12.30
2015,08,06,05,50,12.30
2015,08,06,05,51,12.30
2015,08,06,05,52,12.20
2015,08,06,05,53,12.20
2015,08,06,05,54,12.20
2015,08,06,05,55,12.20
2015,08,06,05,56,12.20
2015,08,06,05,57,12.20
2015,08,06,05,58,12.10
2015,08,06,05,59,12.10
2015,08,06,06,00,12.10
2015,08,06,06,01,12.10
2015,08,06,06,02,12.00
2015,08,06,06,03,12.00
2015,08,06,06,04,12.00
2015,08,06,06,05,12.00
2015,08,06,06,06,12.00
2015,08,06,06,07,11.90
2015,08,06,06,08,11.90
2015,08,06,06,09,11.90
2015,08,06,06,10,11.90
2015,08,06,06,11,11.90
2015,08,06,06,12,11.90
2015,08,06,06,13,11.90
2015,08,06,06,14,11.90
2015,08,06,06,15,11.90
2015,08,06,06,16,11.90
2015,08,06,06,17,11.90
2015,08,06,06,18,11.90
2015,08,06,06,19,11.90
2015,08,06,06,20,12.00
2015,08,06,06,21,12.00
2015,08,06,06,22,12.00
2015,08,06,06,23,12.10
2015,08,06,06,24,12.10
2015,08,06,06,25,12.10
2015,08,06,06,26,12.10
2015,08,06,06,27,12.20
2015,08,06,06,28,12.20
2015,08,06,06,29,12.20
2015,08,06,06,30,12.20
2015,08,06,06,31,12.20
2015,08,06,06,32,12.20
2015,08,06,06,33,12.20
2015,08,06,06,34,12.20
2015,08,06,06,35,12.30
2015,08,06,06,36,12.30
2015,08,06,06,37,12.30
2015,08,06,06,38,12.30
2015,08,06,06,39,12.30
2015,08,06,06,40,12.30
2015,08,06,06,41,12.30
2015,08,06,06,42,12.30
2015,08,06,06,43,12.30
2015,08,06,06,44,12.30
2015,08,06,06,45,12.30
2015,08,06,06,46,12.30
2015,08,06,06,47,12.30
2015,08,06,06,48,12.30
2015,08,06,06,49,12.30
2015,08,06,06,50,12.30
2015,08,06,06,51,12.30
2015,08,06,06,52,12.30
2015,08,06,06,53,12.30
2015,08,06,06,54,12.30
2015,08,06,06,55,12.30
2015,08,06,06,56,12.30
2015,08,06,06,57,12.40
2015,08,06,06,58,12.40
2015,08,06,06,59,12.40
2015,08,06,07,00,12.40
2015,08,06,07,01,12.40
2015,08,06,07,02,12.50
2015,08,06,07,03,12.50
2015,08,06,07,04,12.50
2015,08,06,07,05,12.60
2015,08,06,07,06,12.60
2015,08,06,07,07,12.60
2015,08,06,07,08,12.60
2015,08,06,07,09,12.60
2015,08,06,07,10,12.60
2015,08,06,07,11,12.60
2015,08,06,07,12,12.60
2015,08,06,07,13,12.60
2015,08,06,07,14,12.60
2015,08,06,07,15,12.60
2015,08,06,07,16,12.70
2015,08,06,07,17,12.70
2015,08,06,07,18,12.70
2015,08,06,07,19,12.70
2015,08,06,07,20,12.70
2015,08,06,07,21,12.70
2015,08,06,07,22,12.70
2015,08,06,07,23,12.70
2015,08,06,07,24,12.80
2015,08,06,07,25,12.80
2015,08,06,07,26,12.80
2015,08,06,07,27,12.80
2015,08,06,07,28,12.80
2015,08,06,07,29,12.90
2015,08,06,07,30,12.90
2015,08,06,07,31,13.00
2015,08,06,07,32,13.00
2015,08,06,07,33,13.00
2015,08,06,07,34,13.10
2015,08,06,07,35,13.10
2015,08,06,07,36,13.10
2015,08,06,07,37,13.20
2015,08,06,07,38,13.20
2015,08,06,07,39,13.20
2015,08,06,07,40,13.20
2015,08,06,07,41,13.30
2015,08,06,07,42,13.30
2015,08,06,07,43,13.30
2015,08,06,07,44,13.30
2015,08,06,07,45,13.40
2015,08,06,07,46,13.40
2015,08,06,07,47,13.50
2015,08,06,07,48,13.50
2015,08,06,07,49,13.60
2015,08,06,07,50,13.60
2015,08,06,07,51,13.70
2015,08,06,07,52,13.70
2015,08,06,07,53,13.70
2015,08,06,07,54,13.80
2015,08,06,07,55,13.80
2015,08,06,07,56,13.80
2015,08,06,07,57,13.90
2015,08,06,07,58,13.90
2015,08,06,07,59,13.90
2015,08,06,08,00,14.00
2015,08,06,08,01,14.00
2015,08,06,08,02,14.10
2015,08,06,08,03,14.10
2015,08,06,08,04,14.20
2015,08,06,08,05,14.20
2015,08,06,08,06,14.30
2015,08,06,08,07,14.30
2015,08,06,08,08,14.40
2015,08,06,08,09,14.40
2015,08,06,08,10,14.40
2015,08,06,08,11,14.50
2015,08,06,08,12,14.50
2015,08,06,08,13,14.60
2015,08,06,08,14,14.60
2015,08,06,08,15,14.70
2015,08,06,08,16,14.70
2015,08,06,08,17,14.70
2015,08,06,08,18,14.80
2015,08,06,08,19,14.80
2015,08,06,08,20,14.90
2015,08,06,08,21,14.90
2015,08,06,08,22,15.00
2015,08,06,08,23,15.00
2015,08,06,08,24,15.10
2015,08,06,08,25,15.10
2015,08,06,08,26,15.20
2015,08,06,08,27,15.20
2015,08,06,08,28,15.20
2015,08,06,08,29,15.30
2015,08,06,08,30,15.30
2015,08,06,08,31,15.30
2015,08,06,08,32,15.40
2015,08,06,08,33,15.40
2015,08,06,08,34,15.40
2015,08,06,08,35,15.50
2015,08,06,08,36,15.50
2015,08,06,08,37,15.60
2015,08,06,08,38,15.60
2015,08,06,08,39,15.60
2015,08,06,08,40,15.70
2015,08,06,08,41,15.70
2015,08,06,08,42,15.70
2015,08,06,08,43,15.80
2015,08,06,08,44,15.80
2015,08,06,08,45,15.80
2015,08,06,08,46,15.80
2015,08,06,08,47,15.80
2015,08,06,08,48,15.80
2015,08,06,08,49,15.90
2015,08,06,08,50,15.90
2015,08,06,08,51,15.90
2015,08,06,08,52,15.90
2015,08,06,08,53,15.90
2015,08,06,08,54,15.90
2015,08,06,08,55,16.00
2015,08,06,08,56,16.00
2015,08,06,08,57,16.00
2015,08,06,08,58,16.10
2015,08,06,08,59,16.10
2015,08,06,09,00,16.10
2015,08,06,09,01,16.20
2015,08,06,09,02,16.20
2015,08,06,09,03,16.20
2015,08,06,09,04,16.20
2015,08,06,09,05,16.20
2015,08,06,09,06,16.20
2015,08,06,09,07,16.20
2015,08,06,09,08,16.20
2015,08,06,09,09,16.10
2015,08,06,09,10,16.10
2015,08,06,09,11,16.10
2015,08,06,09,12,16.10
2015,08,06,09,13,16.10
2015,08,06,09,14,16.10
2015,08,06,09,15,16.20
2015,08,06,09,16,16.20
2015,08,06,09,17,16.20
2015,08,06,09,18,16.20
2015,08,06,09,19,16.30
2015,08,06,09,20,16.30
2015,08,06,09,21,16.30
2015,08,06,09,22,16.40
2015,08,06,09,23,16.40
2015,08,06,09,24,16.50
2015,08,06,09,25,16.50
2015,08,06,09,26,16.60
2015,08,06,09,27,16.60
2015,08,06,09,28,16.70
2015,08,06,09,29,16.80
2015,08,06,09,30,16.80
2015,08,06,09,31,16.80
2015,08,06,09,32,16.80
2015,08,06,09,33,16.90
2015,08,06,09,34,17.00
2015,08,06,09,35,17.00
2015,08,06,09,36,17.10
2015,08,06,09,37,17.20
2015,08,06,09,38,17.30
2015,08,06,09,39,17.40
2015,08,06,09,40,17.50
2015,08,06,09,41,17.60
2015,08,06,09,42,17.60
2015,08,06,09,43,17.70
2015,08,06,09,44,17.70
2015,08,06,09,45,17.70
2015,08,06,09,46,17.70
2015,08,06,09,47,17.80
2015,08,06,09,48,17.80
2015,08,06,09,49,17.80
2015,08,06,09,50,17.80
2015,08,06,09,51,17.90
2015,08,06,09,52,17.90
2015,08,06,09,53,17.90
2015,08,06,09,54,17.80
2015,08,06,09,55,17.90
2015,08,06,09,56,17.90
2015,08,06,09,57,17.90
2015,08,06,09,58,17.90
2015,08,06,09,59,17.90
2015,08,06,10,00,18.00
2015,08,06,10,01,18.00
2015,08,06,10,02,18.10
2015,08,06,10,03,18.10
2015,08,06,10,04,18.10
2015,08,06,10,05,18.10
2015,08,06,10,06,18.20
2015,08,06,10,07,18.20
2015,08,06,10,08,18.20
2015,08,06,10,09,18.20
2015,08,06,10,10,18.30
2015,08,06,10,11,18.30
2015,08,06,10,12,18.40
2015,08,06,10,13,18.40
2015,08,06,10,14,18.40
2015,08,06,10,15,18.50
2015,08,06,10,16,18.50
2015,08,06,10,17,18.50
2015,08,06,10,18,18.60
2015,08,06,10,19,18.60
2015,08,06,10,20,18.60
2015,08,06,10,21,18.50
2015,08,06,10,22,18.40
2015,08,06,10,23,18.40
2015,08,06,10,24,18.40
2015,08,06,10,25,18.40
2015,08,06,10,26,18.40
2015,08,06,10,27,18.40
2015,08,06,10,28,18.50
2015,08,06,10,29,18.60
2015,08,06,10,30,18.60
2015,08,06,10,31,18.60
2015,08,06,10,32,18.60
2015,08,06,10,33,18.60
2015,08,06,10,34,18.60
2015,08,06,10,35,18.60
2015,08,06,10,36,18.70
2015,08,06,10,37,18.70
2015,08,06,10,38,18.70
2015,08,06,10,39,18.70
2015,08,06,10,40,18.70
2015,08,06,10,41,18.70
2015,08,06,10,42,18.70
2015,08,06,10,43,18.70
2015,08,06,10,44,18.70
2015,08,06,10,45,18.80
2015,08,06,10,46,18.90
2015,08,06,10,47,18.90
2015,08,06,10,48,18.90
2015,08,06,10,49,18.90
2015,08,06,10,50,18.90
2015,08,06,10,51,18.80
2015,08,06,10,52,18.90
2015,08,06,10,53,18.90
2015,08,06,10,54,18.90
2015,08,06,10,55,18.90
2015,08,06,10,56,18.90
2015,08,06,10,57,18.90
2015,08,06,10,58,19.00
2015,08,06,10,59,19.00
2015,08,06,11,00,19.10
2015,08,06,11,01,19.10
2015,08,06,11,02,19.10
2015,08,06,11,03,19.20
2015,08,06,11,04,19.20
2015,08,06,11,05,19.30
2015,08,06,11,06,19.40
2015,08,06,11,07,19.50
2015,08,06,11,08,19.60
2015,08,06,11,09,19.60
2015,08,06,11,10,19.70
2015,08,06,11,11,19.70
2015,08,06,11,12,19.70
2015,08,06,11,13,19.70
2015,08,06,11,14,19.60
2015,08,06,11,15,19.60
2015,08,06,11,16,19.60
2015,08,06,11,17,19.60
2015,08,06,11,18,19.60
2015,08,06,11,19,19.50
2015,08,06,11,20,19.50
2015,08,06,11,21,19.50
2015,08,06,11,22,19.50
2015,08,06,11,23,19.50
2015,08,06,11,24,19.40
2015,08,06,11,25,19.40
2015,08,06,11,26,19.40
2015,08,06,11,27,19.40
2015,08,06,11,28,19.50
2015,08,06,11,29,19.60
2015,08,06,11,30,19.70
2015,08,06,11,31,19.70
2015,08,06,11,32,19.80
2015,08,06,11,33,19.80
2015,08,06,11,34,19.90
2015,08,06,11,35,19.90
2015,08,06,11,36,19.90
2015,08,06,11,37,20.00
2015,08,06,11,38,20.00
2015,08,06,11,39,20.10
2015,08,06,11,40,20.10
2015,08,06,11,41,20.10
2015,08,06,11,42,20.10
2015,08,06,11,43,20.10
2015,08,06,11,44,20.00
2015,08,06,11,45,19.90
2015,08,06,11,46,19.80
2015,08,06,11,47,19.80
2015,08,06,11,48,19.80
2015,08,06,11,49,19.90
2015,08,06,11,50,19.90
2015,08,06,11,51,19.90
2015,08,06,11,52,19.90
2015,08,06,11,53,19.90
2015,08,06,11,54,20.00
2015,08,06,11,55,20.10
2015,08,06,11,56,20.20
2015,08,06,11,57,20.30
2015,08,06,11,58,20.30
2015,08,06,11,59,20.20
2015,08,06,12,00,20.20
2015,08,06,12,01,20.20
2015,08,06,12,02,20.10
2015,08,06,12,03,20.10
2015,08,06,12,04,20.10
2015,08,06,12,05,20.10
2015,08,06,12,06,20.00
2015,08,06,12,07,20.00
2015,08,06,12,08,19.90
2015,08,06,12,09,19.90
2015,08,06,12,10,20.00
2015,08,06,12,11,20.00
2015,08,06,12,12,19.90
2015,08,06,12,13,19.90
2015,08,06,12,14,19.90
2015,08,06,12,15,19.80
2015,08,06,12,16,19.80
2015,08,06,12,17,19.80
2015,08,06,12,18,19.80
2015,08,06,12,19,19.80
2015,08,06,12,20,19.80
2015,08,06,12,21,19.80
2015,08,06,12,22,19.80
2015,08,06,12,23,19.70
2015,08,06,12,24,19.70
2015,08,06,12,25,19.70
2015,08,06,12,26,19.70
2015,08,06,12,27,19.70
2015,08,06,12,28,19.70
2015,08,06,12,29,19.70
2015,08,06,12,30,19.70
2015,08,06,12,31,19.70
2015,08,06,12,32,19.70
2015,08,06,12,33,19.60
2015,08,06,12,34,19.50
2015,08,06,12,35,19.40
2015,08,06,12,36,19.40
2015,08,06,12,37,19.40
2015,08,06,12,38,19.50
2015,08,06,12,39,19.50
2015,08,06,12,40,19.50
2015,08,06,12,41,19.60
2015,08,06,12,42,19.70
2015,08,06,12,43,19.70
2015,08,06,12,44,19.80
2015,08,06,12,45,19.80
2015,08,06,12,46,19.80
2015,08,06,12,47,19.70
2015,08,06,12,48,19.70
2015,08,06,12,49,19.70
2015,08,06,12,50,19.60
2015,08,06,12,51,19.60
2015,08,06,12,52,19.50
2015,08,06,12,53,19.50
2015,08,06,12,54,19.50
2015,08,06,12,55,19.50
2015,08,06,12,56,19.60
2015,08,06,12,57,19.60
2015,08,06,12,58,19.60
2015,08,06,12,59,19.70
2015,08,06,13,00,19.70
2015,08,06,13,01,19.80
2015,08,06,13,02,19.80
2015,08,06,13,03,19.80
2015,08,06,13,04,19.80
2015,08,06,13,05,19.80
2015,08,06,13,06,19.90
2015,08,06,13,07,19.90
2015,08,06,13,08,20.00
2015,08,06,13,09,20.00
2015,08,06,13,10,20.10
2015,08,06,13,11,20.20
2015,08,06,13,12,20.30
2015,08,06,13,13,20.30
2015,08,06,13,14,20.30
2015,08,06,13,15,20.20
2015,08,06,13,16,20.10
2015,08,06,13,17,20.10
2015,08,06,13,18,20.10
2015,08,06,13,19,20.10
2015,08,06,13,20,20.10
2015,08,06,13,21,20.10
2015,08,06,13,22,20.20
2015,08,06,13,23,20.20
2015,08,06,13,24,20.20
2015,08,06,13,25,20.20
2015,08,06,13,26,20.10
2015,08,06,13,27,20.20
2015,08,06,13,28,20.20
2015,08,06,13,29,20.30
2015,08,06,13,30,20.30
2015,08,06,13,31,20.30
2015,08,06,13,32,20.40
2015,08,06,13,33,20.40
2015,08,06,13,34,20.40
2015,08,06,13,35,20.40
2015,08,06,13,36,20.50
2015,08,06,13,37,20.50
2015,08,06,13,38,20.60
2015,08,06,13,39,20.70
2015,08,06,13,40,20.70
2015,08,06,13,41,20.60
2015,08,06,13,42,20.70
2015,08,06,13,43,20.60
2015,08,06,13,44,20.60
2015,08,06,13,45,20.50
2015,08,06,13,46,20.40
2015,08,06,13,47,20.40
2015,08,06,13,48,20.40
2015,08,06,13,49,20.40
2015,08,06,13,50,20.40
2015,08,06,13,51,20.40
2015,08,06,13,52,20.40
2015,08,06,13,53,20.40
2015,08,06,13,54,20.40
2015,08,06,13,55,20.40
2015,08,06,13,56,20.50
2015,08,06,13,57,20.60
2015,08,06,13,58,20.60
2015,08,06,13,59,20.60
2015,08,06,14,00,20.60
2015,08,06,14,01,20.60
2015,08,06,14,02,20.60
2015,08,06,14,03,20.60
2015,08,06,14,04,20.50
2015,08,06,14,05,20.40
2015,08,06,14,06,20.30
2015,08,06,14,07,20.30
2015,08,06,14,08,20.30
2015,08,06,14,09,20.30
2015,08,06,14,10,20.30
2015,08,06,14,11,20.40
2015,08,06,14,12,20.40
2015,08,06,14,13,20.50
2015,08,06,14,14,20.60
2015,08,06,14,15,20.60
2015,08,06,14,16,20.60
2015,08,06,14,17,20.60
2015,08,06,14,18,20.60
2015,08,06,14,19,20.70
2015,08,06,14,20,20.70
2015,08,06,14,21,20.60
2015,08,06,14,22,20.60
2015,08,06,14,23,20.60
2015,08,06,14,24,20.60
2015,08,06,14,25,20.50
2015,08,06,14,26,20.50
2015,08,06,14,27,20.40
2015,08,06,14,28,20.40
2015,08,06,14,29,20.50
2015,08,06,14,30,20.50
2015,08,06,14,31,20.60
2015,08,06,14,32,20.70
2015,08,06,14,33,20.70
2015,08,06,14,34,20.80
2015,08,06,14,35,20.80
2015,08,06,14,36,20.80
2015,08,06,14,37,20.80
2015,08,06,14,38,20.80
2015,08,06,14,39,20.80
2015,08,06,14,40,20.80
2015,08,06,14,41,20.80
2015,08,06,14,42,20.80
2015,08,06,14,43,20.80
2015,08,06,14,44,20.90
2015,08,06,14,45,20.90
2015,08,06,14,46,21.00
2015,08,06,14,47,21.00
2015,08,06,14,48,21.10
2015,08,06,14,49,21.10
2015,08,06,14,50,21.10
2015,08,06,14,51,21.20
2015,08,06,14,52,21.30
2015,08,06,14,53,21.30
2015,08,06,14,54,21.30
2015,08,06,14,55,21.30
2015,08,06,14,56,21.30
2015,08,06,14,57,21.30
2015,08,06,14,58,21.30
2015,08,06,14,59,21.20
2015,08,06,15,00,21.20
2015,08,06,15,01,21.10
2015,08,06,15,02,21.10
2015,08,06,15,03,21.00
2015,08,06,15,04,20.90
2015,08,06,15,05,20.90
2015,08,06,15,06,21.00
2015,08,06,15,07,21.10
2015,08,06,15,08,21.10
2015,08,06,15,09,21.10
2015,08,06,15,10,21.20
2015,08,06,15,11,21.30
2015,08,06,15,12,21.30
2015,08,06,15,13,21.40
2015,08,06,15,14,21.40
2015,08,06,15,15,21.40
2015,08,06,15,16,21.40
2015,08,06,15,17,21.40
2015,08,06,15,18,21.40
2015,08,06,15,19,21.30
2015,08,06,15,20,21.30
2015,08,06,15,21,21.30
2015,08,06,15,22,21.40
2015,08,06,15,23,21.50
2015,08,06,15,24,21.60
2015,08,06,15,25,21.60
2015,08,06,15,26,21.60
2015,08,06,15,27,21.60
2015,08,06,15,28,21.60
2015,08,06,15,29,21.50
2015,08,06,15,30,21.50
2015,08,06,15,31,21.50
2015,08,06,15,32,21.50
2015,08,06,15,33,21.60
2015,08,06,15,34,21.60
2015,08,06,15,35,21.60
2015,08,06,15,36,21.70
2015,08,06,15,37,21.80
2015,08,06,15,38,21.80
2015,08,06,15,39,21.80
2015,08,06,15,40,21.80
2015,08,06,15,41,21.80
2015,08,06,15,42,21.80
2015,08,06,15,43,21.90
2015,08,06,15,44,21.90
2015,08,06,15,45,21.90
2015,08,06,15,46,21.90
2015,08,06,15,47,21.90
2015,08,06,15,48,22.00
2015,08,06,15,49,22.00
2015,08,06,15,50,22.00
2015,08,06,15,51,22.00
2015,08,06,15,52,22.10
2015,08,06,15,53,22.10
2015,08,06,15,54,22.20
2015,08,06,15,55,22.30
2015,08,06,15,56,22.40
2015,08,06,15,57,22.50
2015,08,06,15,58,22.60
2015,08,06,15,59,22.70
2015,08,06,16,00,22.70
2015,08,06,16,01,22.60
2015,08,06,16,02,22.50
2015,08,06,16,03,22.50
2015,08,06,16,04,22.40
2015,08,06,16,05,22.40
2015,08,06,16,06,22.40
2015,08,06,16,07,22.40
2015,08,06,16,08,22.40
2015,08,06,16,09,22.50
2015,08,06,16,10,22.60
2015,08,06,16,11,22.60
2015,08,06,16,12,22.60
2015,08,06,16,13,22.50
2015,08,06,16,14,22.40
2015,08,06,16,15,22.30
2015,08,06,16,16,22.30
2015,08,06,16,17,22.30
2015,08,06,16,18,22.20
2015,08,06,16,19,22.20
2015,08,06,16,20,22.20
2015,08,06,16,21,22.10
2015,08,06,16,22,22.10
2015,08,06,16,23,22.20
2015,08,06,16,24,22.20
2015,08,06,16,25,22.30
2015,08,06,16,26,22.40
2015,08,06,16,27,22.50
2015,08,06,16,28,22.60
2015,08,06,16,29,22.50
2015,08,06,16,30,22.40
2015,08,06,16,31,22.40
2015,08,06,16,32,22.40
2015,08,06,16,33,22.40
2015,08,06,16,34,22.30
2015,08,06,16,35,22.30
2015,08,06,16,36,22.30
2015,08,06,16,37,22.30
2015,08,06,16,38,22.30
2015,08,06,16,39,22.30
2015,08,06,16,40,22.30
2015,08,06,16,41,22.30
2015,08,06,16,42,22.30
2015,08,06,16,43,22.30
2015,08,06,16,44,22.30
2015,08,06,16,45,22.40
2015,08,06,16,46,22.60
2015,08,06,16,47,22.70
2015,08,06,16,48,22.70
2015,08,06,16,49,22.80
2015,08,06,16,50,22.90
2015,08,06,16,51,22.90
2015,08,06,16,52,23.00
2015,08,06,16,53,23.10
2015,08,06,16,54,23.20
2015,08,06,16,55,23.20
2015,08,06,16,56,23.30
2015,08,06,16,57,23.20
2015,08,06,16,58,23.10
2015,08,06,16,59,23.00
2015,08,06,17,00,23.00
2015,08,06,17,01,22.90
2015,08,06,17,02,22.80
2015,08,06,17,03,22.80
2015,08,06,17,04,22.70
2015,08,06,17,05,22.70
2015,08,06,17,06,22.70
2015,08,06,17,07,22.70
2015,08,06,17,08,22.70
2015,08,06,17,09,22.70
2015,08,06,17,10,22.70
2015,08,06,17,11,22.70
2015,08,06,17,12,22.70
2015,08,06,17,13,22.70
2015,08,06,17,14,22.70
2015,08,06,17,15,22.60
2015,08,06,17,16,22.70
2015,08,06,17,17,22.70
2015,08,06,17,18,22.80
2015,08,06,17,19,22.80